Location: Góry Miechowskie
(50.3599°N, 20.1803°E)
Time: 02:10:04
(UTC+00:00)

Transit 2A Rocket - Pass Details

Date: 15 September 2024
Orbit: 582 x 908 km, 66.7° (Epoch: 10 October)

Event Time Altitude Azimuth Distance (km) Brightness Sun altitude
Exits shadow 22:55:17 37° 26° (NNE) 1,378 6.6 -36.9°
Drops below altitude 10° 22:58:54 10° 35° (NE) 2,598 8.3 -36.8°
Sets 23:01:26 0° 38° (NE) 3,528 9.2 -36.8°
